746  
ASUS46 KPDT 180525  
RWRPDT  
PENDLETON REGIONAL WEATHER ROUNDUP  
NATIONAL WEATHER SERVICE PENDLETON OREGON  
1000 PM PDT SUN JUN 17 2018  
 
NOTE: FAIR INDICATES FEW OR NO CLOUDS BELOW 12,000 FEET WITH NO  
SIGNIFICANT WEATHER AND/OR S TO VISIBILITY
.  
 
# INDICATES UNOFFICIAL STATION AND DATA  
 
WAZ520-180610-  
EAST SLOPES OF WASHINGTON CASCADES  
 
CITY SKY/WX TMP DP RH WIND PRES REMARKS
 
#BULLFROG N/A 65 54 68 CALM N/A  
#CLE ELUM HS N/A 68 52 57 CALM 29.88R  
#EASTON DOT N/A N/A N/A N/A N1 N/A  
#ELK HTS DOT N/A 66 66 100 S5 N/A  
#GLENWOOD N/A 62 51 67 CALM 29.84R  
#NELSON 3SW N/A 59 50 72 CALM 30.05R  
#NILE N/A 60 53 78 CALM 29.24R  
#RONALD 2NW N/A 0 N/A N/A CALM 29.84R  
#TEANAWAY 4NE N/A 66 54 65 CALM N/A  
#TROUT LAKE 1NE N/A 65 51 60 CALM 29.86R  
#TROUT LAKE 1E N/A 63 51 65 CALM 29.95R  

 
 
WAZ521-180610-  
SIMCOE HIGHLANDS  
 
CITY SKY/WX TMP DP RH WIND PRES REMARKS
 
#BICKLETON HS N/A 62 45 54 N3 29.61R  
#SATUS PASS DOT N/A 62 32 32 CALM N/A  
#CENTERVILLE 1SWN/A 66 46 48 E1 29.78R  
#GOLDENDALE 1NE N/A 73 11 9 E2 N/A  
#GOLDENDALE 4W N/A 68 16 13 CALM 29.94R  
#GOODNOE HILLS N/A 72 48 43 NE3 29.80R  
#LYLE 6NE N/A 68 51 55 S7 29.85R  
#PITT 4SE N/A 66 47 50 CALM 29.86R  

 
 
WAZ026-180610-  
KITTITAS VALLEY  
 
CITY SKY/WX TMP DP RH WIND PRES REMARKS
 
ELLENSBURG AP MOCLDY 67 49 52 NE7 29.92R  
#ELLENSBURG CWU N/A 67 49 52 NE5 29.79R  
#ELLENSBURG 3NE N/A 62 52 70 CALM 28.00R  
#ELLENSBURG 1E N/A 66 50 56 NE1 29.91R  
#KITTITAS 3S N/A 59 53 80 N1 29.83R  
#MANASTASH RDG N/A 69 69 100 SE6 N/A  
#ROCKY CYN DOT N/A 68 44 42 N5 N/A  
#RYEGRASS DOT N/A 66 37 34 CALM N/A  
#THORP 6N N/A 68 45 44 CALM 29.84R  

 
 
WAZ027-180610-  
YAKIMA VALLEY  
 
CITY SKY/WX TMP DP RH WIND PRES REMARKS
 
SUNNYSIDE AP CLOUDY 63 54 72 N3 29.86R  
YAKIMA AIRPORT PTCLDY 71 50 47 CALM 29.88R  
#DONALD 2NE N/A 72 13 10 N2 28.73R  
#GRANDVIEW N/A 71 51 49 CALM 29.84R  
#MABTON N/A 70 52 53 CALM 29.85R  
#NACHES 2SW N/A 64 50 60 CALM 29.91R  
#OUTLOOK DOT N/A 73 51 46 N1 29.83R  
#PARKER DOT N/A 71 48 44 CALM 29.86R  
#TERRACE HTS N/A 72 46 39 CALM 29.80R  
#TOPPENISH N/A 73 52 48 CALM 29.75R  
#I82 S UMTANUM RN/A 69 36 30 NE3 N/A  
#UNION GAP DOT N/A 74 45 35 CALM 29.89R  
#W YAKIMA N/A 72 50 46 CALM 29.85R  
#WHITE SWAN 5E N/A 72 54 53 CALM 29.83R  
#WILEY CITY 3W N/A 66 47 50 CALM 29.87R  
#ZILLAH DOT N/A 71 50 47 N3 N/A  

 
 
WAZ028-180610-  
LOWER COLUMBIA BASIN...WASHINGTON  
 
CITY SKY/WX TMP DP RH WIND PRES REMARKS
 
PASCO PTCLDY 72 53 51 NE6 29.84R  
RICHLAND AWOS PTCLDY 73 53 49 CALM 29.84R  
#BENTON CITY N/A 72 49 44 CALM 29.72R  
#CONNELL 5N N/A 70 49 47 NE1 29.83R  
#CONNELL 5NW N/A 68 52 57 CALM 29.78R  
#ELTOPIA 6NW N/A 70 51 51 CALM 28.83R  
#KAHLOTUS N/A 70 48 46 CALM 29.82R  
#KENNEWICK 3S N/A 72 51 48 CALM 29.81R  
#PROSSER DOT N/A 72 50 46 CALM 29.86R  
#SAGEMOOR 2W N/A 70 52 53 N2 29.68R  
#TOUCHET 2S N/A 65 60 84 CALM 29.78R  

 
 
WAZ029-180610-  
FOOTHILLS OF THE BLUES...WASHINGTON  
 
CITY SKY/WX TMP DP RH WIND PRES REMARKS
 
WALLA WALLA AP CLOUDY 66 54 65 E6 29.84R  
#CLYDE 6NW N/A 67 50 54 CALM 29.80R  
#DELANEY DOT N/A 68 50 53 SE3 N/A  
#LOWDEN 2SE N/A 67 58 73 CALM 29.79R  
#PRESCOTT N/A 65 56 73 CALM 29.78R  
#WAITSBURG 6SSE N/A 61 52 72 N3 29.64S  
#WAITSBURG 8N N/A 0 N/A N/A N6 29.65R  
#WALLA WALLA 5E N/A 63 55 75 CALM N/A  
#WHITMAN MISSIONN/A 67 57 70 CALM 29.81R  

 
 
WAZ030-180610-  
BLUE MOUNTAINS...WASHINGTON  
 
CITY SKY/WX TMP DP RH WIND PRES REMARKS
 
#DIXIE 5SE N/A 61 47 60 CALM 29.82R  

 
 
ORZ009-041-WAZ024-180610-  
COLUMBIA RIVER GORGE  
 
CITY SKY/WX TMP DP RH WIND PRES REMARKS
 
HOOD RIVER AP MOCLDY 73 48 41 NW5 29.89R  
THE DALLES AP MOCLDY 76 50 40 NW17 29.83R  
#ARLINGTON AIRPON/A 72 50 46 E5 29.83R  
#LYLE N/A 75 53 46 W8 29.85R  
#MARYHILL N/A 75 44 33 N5 N/A  
#MURDOCK N/A 76 53 45 W12 29.80R  
#SMITHVILLE N/A 76 51 42 NW12 29.80R  
 

 
 
ORZ510-180610-  
NORTH CENTRAL OREGON  
 
CITY SKY/WX TMP DP RH WIND PRES REMARKS
 
#ANTELOPE N/A 61 43 51 CALM 29.69R  
#DUFUR N/A 64 48 56 CALM 29.80R  
#DUFUR 9E N/A 70 44 39 NW6 29.89R  
#GRASS VALLEY 1SN/A 62 44 52 NE6 29.94R  
#MAUPIN SCHOOL N/A 73 49 43 N1 29.91R  
#TYGH VALLEY 2NEN/A 73 45 37 N5 29.81R  
#WAPANITIA AIRPON/A 65 45 48 W3 29.85R  
#WASCO 5NE N/A 71 49 46 CALM 29.82R  

 
 
ORZ511-180610-  
CENTRAL OREGON  
 
CITY SKY/WX TMP DP RH WIND PRES REMARKS
 
BEND AIRPORT MOCLDY 64 39 40 W10 29.96R  
MADRAS AIRPORT MOCLDY 63 45 52 NW9 29.95R  
PRINEVILLE AP CLOUDY 64 39 40 N8 29.95R  
REDMOND AIRPORT MOCLDY 65 40 40 NW7 29.95R  
#ASHWOOD SCHOOL N/A 67 41 39 CALM 29.88R  
#BEND 1SW N/A 58 45 62 CALM N/A  
#BEND-AWBREY N/A 62 42 48 NW3 29.87R  
#BEND-KIM LN N/A 62 42 48 W2 29.81R  
#CULVER N/A 61 43 51 CALM 29.65R  
#CULVER 8W N/A 67 41 39 CALM 29.96R  
#LAKE BILLY CHINN/A 68 N/A N/A W8 29.99R  
#POWELL BUTTE N/A 64 39 40 CALM 29.93R  
#PRINEVILLE N/A 65 43 45 CALM 29.91R  
#PRINEVILLE 3N N/A 61 45 56 W1 29.83R  
#WARM SPRINGS N/A 71 48 44 CALM 29.70R  
 

 
 
 
ORZ509-180610-  
EAST SLOPES OF OREGON CASCADES  
 
CITY SKY/WX TMP DP RH WIND PRES REMARKS
 
SISTERS AWOS N/A 63 41 44 W8 29.94R  
#CAMP SHERMAN N/A 55 44 66 CALM 29.95R  
#LA PINE 4NW N/A 51 43 74 CALM 29.92R  
#SISTERS ODOT N/A 62 40 44 W1 N/A  
#SISTERS 3N N/A 60 40 47 W3 30.00R  
#SUNRIVER N/A 52 48 86 CALM 29.89R  
#TUMALO 3W N/A 62 41 46 W8 29.75R  
 

 
 
ORZ044-180610-  
LOWER COLUMBIA BASIN...OREGON  
 
CITY SKY/WX TMP DP RH WIND PRES REMARKS
 
HERMISTON CLOUDY 75 49 40 N3 29.83R  
#BOARDMAN SCHOOLN/A 74 51 44 CALM 29.81R  
#ECHO 8SW N/A 70 54 57 CALM 29.85R  
#IONE SCHOOL N/A 72 49 44 CALM 29.83R  
#UMATILLA N/A 75 48 38 CALM 29.73R  

 
 
ORZ507-180610-  
NORTHERN FOOTHILLS OF THE BLUES  
 
CITY SKY/WX TMP DP RH WIND PRES REMARKS
 
PENDLETON AIRPT CLOUDY 65 52 63 CALM 29.85R  
#ADAMS 3WNW N/A 62 55 78 CALM 29.80R  
#ATHENA N/A 62 55 78 CALM 29.84R  
#CAYUSE N/A 64 55 73 NE1 29.80R  
#HELIX SCHOOL N/A 61 53 75 N2 29.82R  
#HELIX 3N N/A 61 53 75 CALM 29.89R  
#HOLDMAN 6E N/A 63 53 70 CALM 29.62R  
#M-FREEWATER 5SEN/A 64 54 70 CALM 29.85R  
#PENDLETON DNTN N/A 68 47 47 CALM 29.83R  
#PDT AQUATIC CTRN/A 66 48 52 CALM 29.84S  
#PDT SUNRIDGE N/A 65 53 65 CALM 29.86R  
#PENDLETON 6SE N/A 64 55 73 CALM 29.77R  
#PENDLETON 7NW N/A 67 53 61 CALM N/A  
#TUTUILLA N/A 61 52 72 CALM 29.90R  
#UMAPINE 2E N/A 65 58 78 CALM 29.80R  
 

 
 
ORZ508-180610-  
SOUTHERN FOOTHILLS OF THE BLUES  
 
CITY SKY/WX TMP DP RH WIND PRES REMARKS
 
#AJAX N/A 69 39 33 CALM 30.06R  
#CONDON 5W N/A 62 45 54 CALM 29.91R  
#FOSSIL SCHOOL N/A 69 44 40 NE3 29.86R  
#HEPPNER EOC N/A 67 46 47 N1 29.77R  
#HEPPNER 4NE N/A 62 46 56 CALM 29.83R  
#LEXINGTON 2SE N/A 72 46 39 CALM 29.84R  
#OLEX 4N N/A 73 49 43 NE5 29.84  
#RUGGS 5NE N/A 63 44 50 N6 30.07S  
#RUGGS 2SW N/A 65 45 48 NE5 29.84R  
 

 
 
ORZ502-503-180610-  
BLUE MOUNTAINS  
 
CITY SKY/WX TMP DP RH WIND PRES REMARKS
 
MEACHAM CLOUDY 55 53 93 CALM 29.92S  
#GRANITE N/A 51 43 74 E2 29.59S  
#HARDMAN 10S N/A 56 46 69 N1 29.96R  
#HEPPNER 15SE N/A 53 48 83 CALM 25.47R  
#PIKES PEAK N/A 59 46 62 N2 27.99S  
#SUMMERVILLE 5NWN/A 56 52 86 CALM 26.57R  
#TOLLGATE N/A 49 46 89 NE1 30.00R  
#TROY SCHOOL N/A 63 55 75 CALM 29.65R  
#UKIAH N/A 58 47 67 N3 29.75R  

 
 
ORZ505-180610-  
JOHN DAY BASIN  
 
CITY SKY/WX TMP DP RH WIND PRES REMARKS
 
JOHN DAY LGT DRIZZLE 60 47 62 CALM 29.92S  
#ANTELOPE 9ESE N/A 75 42 31 CALM N/A  
#DAYVILLE SCHOOLN/A 67 43 42 CALM 29.85R  
#MITCHELL 8NW N/A 64 41 43 CALM 29.85R  
#MONUMENT HS N/A 64 48 56 CALM 29.84R  
#MT. VERNON 5SE N/A 57 46 67 CALM 29.88R  
#SPRAY SCHOOL N/A 71 N/A N/A N1 N/A  

 
 
ORZ506-180610-  
OCHOCO AND JOHN DAY HIGHLANDS  
 
CITY SKY/WX TMP DP RH WIND PRES REMARKS
 
#IZEE 6NW N/A 54 49 83 CALM N/A  
#PINE MTN OBS N/A 49 39 68 CALM N/A  
#PRAIRIE CITY N/A 58 47 67 CALM 30.04R  
#SENECA N/A 53 N/A N/A N2 N/A  
#SENECA 9NW N/A 52 46 80 CALM 29.80S  

 
 
ORZ049-180610-  
GRANDE RONDE VALLEY  
 
CITY SKY/WX TMP DP RH WIND PRES REMARKS
 
LA GRANDE CLOUDY 59 50 72 N13 29.88S  
#COVE SCHOOL N/A 59 51 75 CALM 29.89R  
#COVE 6NW N/A 58 51 77 N6 29.80S  
#ELGIN 3N N/A 57 49 75 CALM 29.87R  
#ELGIN 1E N/A 58 49 72 CALM N/A  
#IMBLER SCHOOL N/A 58 49 72 CALM 29.86R  
#ISLAND CITY 4N N/A 66 58 75 CALM 29.88R  
#UNION 1S N/A 60 50 69 NW2 29.80S  

 
 
ORZ050-180610-  
WALLOWA COUNTY  
 
CITY SKY/WX TMP DP RH WIND PRES REMARKS
 
#ENTERPRISE HS N/A 53 51 93 CALM 29.73R  
#JOSEPH N/A 52 50 93 SW1 30.13S  
#JOSEPH 3N N/A 52 46 80 CALM 29.96R  
#JOSEPH 3W N/A 49 49 100 SW1 29.79R  
#LOSTINE N/A 54 51 90 CALM 29.65S  
#LOSTINE 3SE N/A 53 50 89 CALM 29.98S  
#MT HOWARD 8000 N/A 39 38 96 CALM 30.02R  
#PROMISE 1S N/A 56 48 74 CALM 29.88S  
#WALLOWA LAKE N/A 49 48 96 CALM 29.96R  
 

 
 
CLICK HERE TO GO TO PREVIOUS BULLETINS.

The Nexlab OR Page
The Nexlab WA Page Main Text Page